| time (UTC) | temp F | wind direction | speed MPH | gust MPH | rain 1hr in | rain 24hr in | rain mn in | humidity % | barometer mb |
| 20260905030004 | 55 | 251 | 5.0 | 9.0 | 0.00 | 0.06 | 0.00 | 97 | 995.9 |
| 20260905023003 | 55 | 248 | 4.0 | 8.0 | 0.00 | 0.09 | 0.00 | 97 | 995.7 |
| 20260905020004 | 55 | 241 | 5.0 | 7.0 | 0.00 | 0.09 | 0.00 | 97 | 995.4 |
| 20260905014504 | 55 | 239 | 5.0 | 9.0 | 0.00 | 0.09 | 0.00 | 97 | 995.3 |
| 20260905013003 | 55 | 241 | 6.0 | 10.0 | 0.00 | 0.09 | 0.00 | 97 | 995.3 |
| 20260905010004 | 54 | 228 | 6.0 | 10.0 | 0.00 | 0.09 | 0.00 | 97 | 995.3 |
| 20260905004504 | 54 | 236 | 6.0 | 12.0 | 0.00 | 0.09 | 0.00 | 97 | 995.3 |
| 20260905003004 | 54 | 244 | 8.0 | 12.0 | 0.00 | 0.09 | 0.00 | 97 | 995.3 |
| 20260905001504 | 54 | 240 | 7.0 | 12.0 | 0.00 | 0.09 | 0.00 | 97 | 995.3 |
| 20260904234504 | 53 | 239 | 5.0 | 8.0 | 0.00 | 0.09 | 0.00 | 97 | 995.2 |
| 20260904233004 | 53 | 233 | 6.0 | 8.0 | 0.00 | 0.09 | 0.00 | 97 | 995.2 |
| 20260904231504 | 53 | 242 | 3.0 | 7.0 | 0.00 | 0.09 | 0.00 | 97 | 995.1 |
| 20260904230003 | 53 | 264 | 3.0 | 6.0 | 0.00 | 0.09 | 0.00 | 97 | 995.0 |
| 20260904224503 | 53 | 246 | 3.0 | 8.0 | 0.00 | 0.09 | 0.00 | 97 | 995.0 |
| 20260904223003 | 52 | 249 | 4.0 | 8.0 | 0.00 | 0.09 | 0.00 | 97 | 995.0 |
| 20260904221503 | 52 | 240 | 4.0 | 8.0 | 0.00 | 0.09 | 0.00 | 97 | 995.1 |
| 20260904220004 | 52 | 234 | 4.0 | 6.0 | 0.01 | 0.09 | 0.00 | 97 | 995.0 |
| 20260904214503 | 52 | 230 | 3.0 | 7.0 | 0.01 | 0.09 | 0.09 | 96 | 995.0 |
| 20260904213004 | 53 | 243 | 5.0 | 6.0 | 0.01 | 0.09 | 0.09 | 96 | 994.9 |
| 20260904211504 | 54 | 260 | 4.0 | 6.0 | 0.01 | 0.10 | 0.09 | 96 | 994.9 |
| 20260904210004 | 54 | 277 | 3.0 | 8.0 | 0.00 | 0.09 | 0.08 | 96 | 994.9 |
| 20260904204504 | 55 | 265 | 3.0 | 5.0 | 0.00 | 0.11 | 0.08 | 96 | 994.8 |
| 20260904203004 | 56 | 242 | 2.0 | 5.0 | 0.00 | 0.11 | 0.08 | 97 | 995.1 |
| 20260904200004 | 55 | 223 | 5.0 | 7.0 | 0.00 | 0.11 | 0.08 | 96 | 994.9 |
| 20260904194504 | 57 | 284 | 0.0 | 0.0 | 0.00 | 0.11 | 0.08 | 96 | 994.9 |
| 20260904193005 | 57 | 284 | 0.0 | 0.0 | 0.01 | 0.11 | 0.08 | 96 | 995.2 |
| 20260904191504 | 57 | 284 | 0.0 | 0.0 | 0.01 | 0.11 | 0.08 | 97 | 995.3 |
| 20260904190003 | 58 | 284 | 0.0 | 0.0 | 0.01 | 0.12 | 0.08 | 96 | 995.3 |
| 20260904183003 | 57 | 209 | 0.0 | 0.0 | 0.00 | 0.11 | 0.07 | 96 | 995.3 |
| 20260904181503 | 57 | 209 | 0.0 | 0.0 | 0.00 | 0.11 | 0.07 | 96 | 995.5 |
| 20260904180005 | 58 | 209 | 0.0 | 0.0 | 0.00 | 0.12 | 0.07 | 96 | 995.5 |
| 20260904174504 | 57 | 209 | 0.0 | 0.0 | 0.01 | 0.12 | 0.07 | 96 | 995.5 |
| 20260904173004 | 57 | 209 | 0.0 | 3.0 | 0.02 | 0.12 | 0.07 | 96 | 995.4 |
| 20260904171503 | 57 | 188 | 0.0 | 2.0 | 0.02 | 0.12 | 0.07 | 96 | 995.4 |
| 20260904170004 | 58 | 187 | 2.0 | 5.0 | 0.03 | 0.12 | 0.07 | 95 | 995.6 |
| 20260904164504 | 58 | 204 | 3.0 | 7.0 | 0.02 | 0.11 | 0.06 | 95 | 995.8 |
| 20260904163003 | 58 | 206 | 3.0 | 7.0 | 0.01 | 0.10 | 0.05 | 95 | 995.9 |
| 20260904161503 | 58 | 198 | 2.0 | 6.0 | 0.01 | 0.10 | 0.05 | 94 | 995.9 |
| 20260904160004 | 58 | 193 | 3.0 | 7.0 | 0.00 | 0.09 | 0.04 | 94 | 996.0 |
| 20260904154504 | 59 | 204 | 3.0 | 7.0 | 0.00 | 0.09 | 0.04 | 93 | 996.2 |
| 20260904151504 | 59 | 192 | 3.0 | 8.0 | 0.00 | 0.10 | 0.04 | 92 | 996.7 |
| 20260904150004 | 59 | 213 | 4.0 | 12.0 | 0.00 | 0.10 | 0.04 | 93 | 996.7 |
| 20260904144504 | 58 | 223 | 5.0 | 10.0 | 0.01 | 0.10 | 0.04 | 93 | 996.9 |
| 20260904143003 | 58 | 212 | 5.0 | 13.0 | 0.01 | 0.10 | 0.04 | 93 | 997.2 |
| 20260904141504 | 58 | 199 | 6.0 | 12.0 | 0.01 | 0.10 | 0.04 | 93 | 997.2 |
| 20260904134504 | 59 | 218 | 3.0 | 13.0 | 0.00 | 0.10 | 0.03 | 92 | 997.7 |
| 20260904133004 | 59 | 206 | 5.0 | 12.0 | 0.00 | 0.10 | 0.03 | 90 | 998.1 |
| 20260904131503 | 60 | 181 | 5.0 | 12.0 | 0.00 | 0.10 | 0.03 | 88 | 998.1 |
| 20260904130004 | 60 | 214 | 5.0 | 9.0 | 0.00 | 0.10 | 0.03 | 87 | 998.1 |
| 20260904124503 | 61 | 225 | 2.0 | 12.0 | 0.00 | 0.10 | 0.03 | 85 | 998.1 |
| 20260904121503 | 62 | 243 | 8.0 | 13.0 | 0.00 | 0.10 | 0.03 | 77 | 998.5 |
| 20260904120004 | 63 | 249 | 3.0 | 10.0 | 0.00 | 0.10 | 0.03 | 78 | 998.5 |
| 20260904114504 | 63 | 243 | 5.0 | 12.0 | 0.00 | 0.10 | 0.03 | 78 | 998.9 |
| 20260904113004 | 64 | 242 | 7.0 | 13.0 | 0.00 | 0.10 | 0.03 | 76 | 998.9 |
| 20260904111504 | 64 | 234 | 7.0 | 15.0 | 0.00 | 0.10 | 0.03 | 76 | 999.0 |
| 20260904110003 | 64 | 241 | 7.0 | 16.0 | 0.00 | 0.10 | 0.03 | 76 | 999.3 |
| 20260904104504 | 64 | 259 | 2.0 | 14.0 | 0.00 | 0.10 | 0.03 | 79 | 999.3 |
| 20260904103004 | 64 | 273 | 6.0 | 13.0 | 0.00 | 0.10 | 0.03 | 77 | 999.3 |
| 20260904101504 | 64 | 272 | 7.0 | 13.0 | 0.00 | 0.10 | 0.03 | 77 | 999.7 |
| 20260904094504 | 63 | 257 | 8.0 | 15.0 | 0.00 | 0.10 | 0.03 | 79 | 999.7 |
| 20260904093004 | 63 | 244 | 8.0 | 18.0 | 0.00 | 0.10 | 0.03 | 80 | 999.7 |
| 20260904091504 | 64 | 240 | 10.0 | 18.0 | 0.00 | 0.10 | 0.03 | 80 | 999.6 |
| 20260904090004 | 63 | 262 | 9.0 | 16.0 | 0.00 | 0.10 | 0.03 | 81 | 999.9 |
| 20260904084504 | 63 | 280 | 6.0 | 21.0 | 0.00 | 0.10 | 0.03 | 83 | 1000.1 |
| 20260904083005 | 62 | 266 | 9.0 | 21.0 | 0.00 | 0.10 | 0.03 | 84 | 1000.1 |
| 20260904081504 | 62 | 266 | 8.0 | 18.0 | 0.00 | 0.10 | 0.03 | 87 | 999.9 |
| 20260904080004 | 62 | 245 | 8.0 | 20.0 | 0.00 | 0.10 | 0.03 | 87 | 1000.1 |
| 20260904074504 | 61 | 247 | 9.0 | 17.0 | 0.00 | 0.10 | 0.03 | 90 | 999.9 |
| 20260904073004 | 60 | 241 | 7.0 | 20.0 | 0.00 | 0.10 | 0.03 | 91 | 999.9 |
| 20260904064504 | 59 | 248 | 10.0 | 17.0 | 0.00 | 0.11 | 0.03 | 95 | 1000.2 |
| 20260904063004 | 58 | 237 | 9.0 | 15.0 | 0.00 | 0.11 | 0.03 | 96 | 1000.2 |
| 20260904061504 | 58 | 253 | 7.0 | 14.0 | 0.00 | 0.11 | 0.03 | 96 | 1000.0 |
| 20260904060004 | 58 | 246 | 8.0 | 14.0 | 0.00 | 0.11 | 0.03 | 96 | 1000.1 |
| 20260904054504 | 58 | 239 | 7.0 | 13.0 | 0.00 | 0.11 | 0.03 | 97 | 1000.1 |
| 20260904053004 | 58 | 240 | 6.0 | 12.0 | 0.00 | 0.11 | 0.03 | 97 | 999.9 |
| 20260904050004 | 58 | 248 | 5.0 | 12.0 | 0.00 | 0.11 | 0.03 | 97 | 1000.0 |
| 20260904044504 | 58 | 243 | 7.0 | 14.0 | 0.00 | 0.11 | 0.03 | 97 | 1000.0 |
| 20260904043004 | 58 | 252 | 9.0 | 14.0 | 0.00 | 0.11 | 0.03 | 97 | 1000.0 |
| 20260904041504 | 58 | 238 | 6.0 | 12.0 | 0.00 | 0.11 | 0.03 | 98 | 1000.1 |
| 20260904040004 | 58 | 214 | 2.0 | 8.0 | 0.00 | 0.11 | 0.03 | 98 | 1000.1 |
| 20260904034504 | 58 | 190 | 0.0 | 7.0 | 0.02 | 0.11 | 0.03 | 97 | 1000.1 |
| 20260904033003 | 58 | 192 | 0.0 | 0.0 | 0.03 | 0.11 | 0.03 | 97 | 1000.5 |